Amateur Radio Satellites - All Passes

Search period start: 21 May 2013 15:26
Search period end: 22 May 2013 15:26
Location: UMBC, 39.2555°N, 76.7093°W

Satellite Date Start Highest point End Downlink Frequencies (MHz)
Time Altitude Azimuth
SO-50 21 May 15:30:18 15:35:06 80° 120° (ESE) 15:39:52 436.795 FM
Hamsat 21 May 15:35:56 15:37:59 13° 295° (WNW) 15:40:02 145.90 MHz
SO-67 21 May 15:45:01 15:47:39 20° 290° (WNW) 15:50:17 435.3500 MHz FM
ISS 21 May 15:49:44 15:52:57 40° 32° (NNE) 15:56:09 145.800 FM
Oscar 11 21 May 15:53:11 15:55:29 14° 92° (E) 15:57:45 145.825 FM, Beacon 2401.500 USB
PCSat 21 May 16:20:47 16:22:48 12° 320° (NW) 16:24:50 145.825 MHz
JAS-2 21 May 16:29:16 16:35:57 48° 97° (E) 16:41:49 435.800 - 435.900 CW/SSB, 435.910 FM
OPAL 21 May 16:34:56 16:38:20 18° 95° (E) 16:41:42 ?
HO-68 21 May 16:58:29 17:05:41 84° 287° (WNW) 17:12:51 435.675 MHz FM
UOSAT-12 21 May 17:04:25 17:06:43 14° 108° (ESE) 17:09:01 437.025 FM, 437.400 FM
Oscar 10/S400 21 May 17:11:23 18:39:53 15° 281° (W) 21:02:15 145.825 - 145.975 CW/USB, Beacon 145.810 USB
SO-50 21 May 17:13:28 17:16:18 15° 318° (NW) 17:19:06 436.795 FM
KITSAT 1 21 May 17:15:33 17:19:23 14° 261° (W) 17:23:12 435.175 FM
ISS 21 May 17:26:51 17:29:29 21° 228° (SW) 17:32:07 145.800 FM
Oscar 11 21 May 17:27:45 17:31:57 48° 287° (WNW) 17:36:09 145.825 FM, Beacon 2401.500 USB
MaSat-1 21 May 18:06:49 18:10:07 56° 62° (ENE) 18:12:49 437.345 MHz
OPAL 21 May 18:12:40 18:17:29 48° 291° (WNW) 18:22:14 ?
JAS-2 21 May 18:14:47 18:20:35 29° 298° (WNW) 18:25:51 435.800 - 435.900 CW/SSB, 435.910 FM
UOSAT-12 21 May 18:41:55 18:46:22 59° 304° (NW) 18:50:52 437.025 FM, 437.400 FM
HO-68 21 May 18:48:17 18:52:19 16° 306° (NW) 18:56:22 435.675 MHz FM
Uribyol 2 21 May 18:58:19 19:01:24 16° 62° (ENE) 19:04:30 436.500 FM
Oscar 19 21 May 19:03:57 19:07:43 21° 64° (ENE) 19:11:29 437.125 CW, 437.150 USB
PANSAT 21 May 19:39:27 19:41:50 16° 174° (S) 19:44:12 not established
Oscar 16 21 May 19:41:27 19:46:29 54° 72° (ENE) 19:51:34 437.025 USB, Beacon 2401.1428
AO-27 21 May 19:47:02 19:51:55 44° 71° (ENE) 19:56:50 436.795 MHz FM
ITAMSAT 1 21 May 19:53:58 19:58:56 50° 72° (ENE) 20:03:57 435.822 SSB
Uribyol 2 21 May 20:35:14 20:40:21 63° 259° (WSW) 20:45:31 436.500 FM
Oscar 19 21 May 20:41:42 20:46:42 48° 261° (W) 20:51:44 437.125 CW, 437.150 USB
Uosat F 21 May 20:49:35 20:53:37 25° 66° (ENE) 20:57:39 435.120 FM
AO-Echo 21 May 20:57:13 21:02:04 67° 75° (ENE) 21:06:49 ?
Saudisat 1A 21 May 21:12:26 21:16:57 60° 56° (NE) 21:21:20 436.775 MHz
PANSAT 21 May 21:19:13 21:21:32 15° 187° (S) 21:23:51 not established
TMSAT-1 21 May 21:22:12 21:26:38 28° 67° (ENE) 21:31:05 436.925 FM
Oscar 16 21 May 21:22:48 21:26:10 17° 268° (W) 21:29:33 437.025 USB, Beacon 2401.1428
AO-27 21 May 21:27:48 21:31:38 21° 266° (W) 21:35:29 436.795 MHz FM
ITAMSAT 1 21 May 21:35:13 21:38:43 18° 267° (W) 21:42:15 435.822 SSB
PCSat 21 May 21:40:34 21:43:06 13° 41° (NE) 21:45:38 145.825 MHz
Gurwin Techsat 1B 21 May 21:42:10 21:47:24 64° 73° (ENE) 21:52:39 435.225 FM
RS-15 21 May 21:56:22 22:06:59 38° 107° (ESE) 22:17:14 29.354 - 29.394 USB, Beacon 29.352 USB
Sapphire 21 May 22:12:25 22:16:31 21° 48° (NE) 22:20:36 437.095 MHz 1200 baud AX-25 AFSK
AO-7 21 May 22:14:44 22:22:21 43° 62° (ENE) 22:30:00 29.400 - 29.500 MHz
Uosat F 21 May 22:27:40 22:32:14 36° 262° (W) 22:36:50 435.120 FM
AO-Echo 21 May 22:39:31 22:41:16 12° 269° (W) 22:43:02 ?
Saudisat 1A 21 May 22:53:51 22:56:06 14° 252° (WSW) 22:58:19 436.775 MHz
TMSAT-1 21 May 23:01:37 23:06:25 35° 263° (W) 23:11:15 436.925 FM
PCSat 21 May 23:22:00 23:27:28 76° 61° (ENE) 23:32:52 145.825 MHz
Gurwin Techsat 1B 21 May 23:24:54 23:27:48 15° 269° (W) 23:30:43 435.225 FM
Sapphire 21 May 23:55:01 00:00:21 60° 246° (WSW) 00:05:40 437.095 MHz 1200 baud AX-25 AFSK
SO-50 22 May 00:03:42 00:08:09 52° 55° (NE) 00:12:31 436.795 FM
RS-15 22 May 00:06:55 00:18:50 64° 307° (NW) 00:30:18 29.354 - 29.394 USB, Beacon 29.352 USB
AO-7 22 May 00:07:21 00:15:04 43° 260° (W) 00:22:52 29.400 - 29.500 MHz
JAS-1B 22 May 00:18:40 00:24:41 21° 59° (ENE) 00:30:08 435.800 - 435.900 CW/SSB
Hamsat 22 May 00:51:27 00:55:16 34° 71° (ENE) 00:59:07 145.90 MHz
PCSat 22 May 01:07:41 01:10:10 13° 257° (WSW) 01:12:39 145.825 MHz
STRAND 1 22 May 01:23:13 01:28:20 63° 102° (ESE) 01:33:25 ?
UOSAT-12 22 May 01:34:10 01:36:16 13° 40° (NE) 01:38:22 437.025 FM, 437.400 FM
HO-68 22 May 01:43:23 01:46:04 12° 51° (NE) 01:48:44 435.675 MHz FM
SO-50 22 May 01:45:37 01:48:19 16° 251° (WSW) 01:50:59 436.795 FM
JAS-1B 22 May 02:04:58 02:14:26 89° 75° (ENE) 02:22:33 435.800 - 435.900 CW/SSB
SO-67 22 May 02:18:52 02:22:23 61° 260° (W) 02:25:57 435.3500 MHz FM
RS-15 22 May 02:25:16 02:34:08 24° 335° (NNW) 02:42:46 29.354 - 29.394 USB, Beacon 29.352 USB
Hamsat 22 May 02:28:33 02:31:26 18° 267° (W) 02:34:21 145.90 MHz
JAS-2 22 May 02:39:32 02:45:25 25° 60° (ENE) 02:51:21 435.800 - 435.900 CW/SSB, 435.910 FM
Oscar 11 22 May 02:49:32 02:50:26 11° 62° (ENE) 02:51:19 145.825 FM, Beacon 2401.500 USB
STRAND 1 22 May 03:03:57 03:07:00 16° 298° (WNW) 03:10:03 ?
UOSAT-12 22 May 03:12:31 03:17:09 86° 59° (ENE) 03:21:45 437.025 FM, 437.400 FM
HO-68 22 May 03:25:24 03:32:26 67° 70° (ENE) 03:39:31 435.675 MHz FM
OPAL 22 May 03:48:21 03:52:54 32° 66° (ENE) 03:57:25 ?
KITSAT 1 22 May 03:53:06 03:57:23 16° 100° (E) 04:01:41 435.175 FM
JAS-1B 22 May 03:59:24 04:05:28 19° 269° (W) 04:11:06 435.800 - 435.900 CW/SSB
Oscar 11 22 May 04:21:45 04:26:03 70° 258° (WSW) 04:30:23 145.825 FM, Beacon 2401.500 USB
JAS-2 22 May 04:21:58 04:29:37 75° 258° (WSW) 04:37:31 435.800 - 435.900 CW/SSB, 435.910 FM
RS-15 22 May 04:44:58 04:52:28 19° 12° (NNE) 04:59:46 29.354 - 29.394 USB, Beacon 29.352 USB
HO-68 22 May 05:15:27 05:20:38 21° 267° (W) 05:25:51 435.675 MHz FM
OPAL 22 May 05:27:09 05:31:43 31° 261° (W) 05:36:17 ?
KITSAT 1 22 May 05:43:30 05:51:33 85° 118° (ESE) 05:59:42 435.175 FM
JAS-2 22 May 06:12:29 06:15:44 13° 275° (W) 06:19:02 435.800 - 435.900 CW/SSB, 435.910 FM
MaSat-1 22 May 06:56:12 07:00:33 17° 103° (ESE) 07:04:33 437.345 MHz
RS-15 22 May 06:58:25 07:08:58 44° 45° (NE) 07:19:11 29.354 - 29.394 USB, Beacon 29.352 USB
KITSAT 1 22 May 07:41:33 07:47:57 25° 319° (NW) 07:54:25 435.175 FM
Oscar 16 22 May 07:55:13 07:59:04 21° 93° (E) 08:02:52 437.025 USB, Beacon 2401.1428
AO-27 22 May 08:02:13 08:05:39 18° 92° (E) 08:09:04 436.795 MHz FM
ITAMSAT 1 22 May 08:08:51 08:12:38 20° 93° (E) 08:16:23 435.822 SSB
ISS 22 May 08:31:56 08:34:32 21° 132° (SE) 08:37:08 145.800 FM
AO-40 22 May 08:34:49 10:04:31 32° 236° (SW) 13:55:53 Beacon 2401.320
MaSat-1 22 May 08:35:08 08:42:22 82° 294° (WNW) 08:48:21 437.345 MHz
Uribyol 2 22 May 08:49:09 08:54:15 51° 100° (E) 08:59:19 436.500 FM
Oscar 19 22 May 08:54:18 08:59:28 67° 102° (ESE) 09:04:34 437.125 CW, 437.150 USB
AO-Echo 22 May 09:06:06 09:09:50 23° 95° (E) 09:13:36 ?
RS-15 22 May 09:10:59 09:21:36 56° 248° (WSW) 09:32:03 29.354 - 29.394 USB, Beacon 29.352 USB
Oscar 16 22 May 09:33:43 09:38:37 44° 289° (WNW) 09:43:29 437.025 USB, Beacon 2401.1428
AO-27 22 May 09:40:24 09:45:29 54° 288° (WNW) 09:50:33 436.795 MHz FM
TMSAT-1 22 May 09:41:10 09:42:47 11° 89° (E) 09:44:24 436.925 FM
ITAMSAT 1 22 May 09:47:21 09:52:21 47° 289° (WNW) 09:57:20 435.822 SSB
Gurwin Techsat 1B 22 May 10:00:00 10:04:33 28° 95° (E) 10:09:04 435.225 FM
ISS 22 May 10:07:56 10:11:04 39° 328° (NNW) 10:14:14 145.800 FM
AO-7 22 May 10:20:43 10:23:30 12° 88° (E) 10:26:17 29.400 - 29.500 MHz
MaSat-1 22 May 10:21:12 10:25:03 16° 309° (NW) 10:28:32 437.345 MHz
Uribyol 2 22 May 10:29:39 10:33:20 20° 296° (WNW) 10:37:00 436.500 FM
Oscar 19 22 May 10:35:21 10:38:13 15° 298° (WNW) 10:41:05 437.125 CW, 437.150 USB
Uosat F 22 May 10:35:57 10:41:00 76° 103° (ESE) 10:46:01 435.120 FM
AO-Echo 22 May 10:44:23 10:48:41 35° 290° (WNW) 10:53:03 ?
TMSAT-1 22 May 11:17:59 11:23:19 81° 285° (WNW) 11:28:37 436.925 FM
Saudisat 1A 22 May 11:19:46 11:23:08 21° 111° (ESE) 11:26:33 436.775 MHz
Gurwin Techsat 1B 22 May 11:39:45 11:44:31 35° 291° (WNW) 11:49:16 435.225 FM
KITSAT 1 22 May 11:44:45 11:47:17 12° 21° (NNE) 11:49:48 435.175 FM
ISS 22 May 11:47:02 11:48:31 12° 347° (NNW) 11:50:01 145.800 FM
AO-7 22 May 12:09:12 12:17:35 72° 105° (ESE) 12:25:55 29.400 - 29.500 MHz
Uosat F 22 May 12:16:58 12:19:09 13° 299° (WNW) 12:21:20 435.120 FM
PCSat 22 May 12:24:46 12:25:26 10° 101° (E) 12:26:06 145.825 MHz
STRAND 1 22 May 12:38:15 12:43:20 81° 75° (ENE) 12:48:27 ?
Sapphire 22 May 12:54:07 12:58:01 21° 106° (ESE) 13:01:55 437.095 MHz 1200 baud AX-25 AFSK
Saudisat 1A 22 May 12:58:13 13:02:33 42° 307° (NW) 13:06:57 436.775 MHz
TMSAT-1 22 May 13:01:45 13:02:22 10° 302° (WNW) 13:02:58 436.925 FM
ISS 22 May 13:25:31 13:26:27 11° 8° (N) 13:27:23 145.800 FM
KITSAT 1 22 May 13:38:11 13:45:35 36° 48° (NE) 13:52:55 435.175 FM
SO-67 22 May 13:48:48 13:49:56 11° 91° (E) 13:51:03 435.3500 MHz FM
JAS-1B 22 May 13:54:24 13:58:45 21° 92° (E) 14:02:56 435.800 - 435.900 CW/SSB
PCSat 22 May 14:02:35 14:07:59 88° 116° (ESE) 14:13:27 145.825 MHz
AO-7 22 May 14:03:06 14:09:37 26° 304° (NW) 14:16:08 29.400 - 29.500 MHz
Hamsat 22 May 14:14:25 14:18:48 87° 102° (ESE) 14:23:11 145.90 MHz
SO-50 22 May 14:18:50 14:22:34 23° 111° (ESE) 14:26:17 436.795 FM
STRAND 1 22 May 14:22:13 14:23:07 10° 271° (W) 14:24:01 ?
Sapphire 22 May 14:35:46 14:41:01 52° 302° (WNW) 14:46:19 437.095 MHz 1200 baud AX-25 AFSK
HO-68 22 May 14:58:09 15:00:05 11° 88° (E) 15:02:01 435.675 MHz FM
ISS 22 May 15:01:10 15:04:05 27° 28° (NNE) 15:06:59 145.800 FM

Developed and maintained by Chris Peat, Heavens-Above GmbH. Please read the updated FAQ before sending e-mail. Imprint. DLR
